Theta_e
294 293 293 295 295 296 299 300 297 293 294 295 294 298 298 298 300 299 299 302 303 302 303 304 304 304 305 306 307 307 309 311 314 316 318 321 322 324
291 290 290 291 292 292 294 294 296 294 292 299 299 297 298 300 300 299 298 303 302 300 300 301 302 303 303 304 303 304 305 306 307 309 312 315 319 321
288 289 289 290 289 290 290 290 291 290 288 291 294 299 300 297 298 298 298 298 297 300 299 299 299 300 300 302 301 301 300 301 303 303 305 307 311 315
288 288 288 290 288 288 288 288 288 290 291 289 293 294 296 300 300 298 298 299 295 298 299 299 298 299 298 299 299 299 298 299 299 299 301 302 304 306
287 287 288 288 287 287 287 287 288 290 288 287 288 291 294 297 298 299 297 295 296 300 299 298 298 299 299 298 299 298 297 297 296 297 297 297 299 301
288 288 288 288 287 287 288 288 288 286 287 286 286 287 289 292 295 296 295 297 295 296 298 297 297 298 298 298 298 298 297 296 295 294 294 293 295 297
287 287 287 288 291 290 289 287 286 285 285 285 284 284 284 286 287 291 293 295 295 294 292 292 292 294 294 298 298 298 297 295 294 294 293 293 293 294
283 285 286 288 288 289 288 288 287 284 283 284 283 282 283 284 286 287 288 291 289 292 291 290 292 290 292 295 297 296 296 295 294 294 293 292 292 292
283 283 284 286 284 284 285 286 286 286 284 284 283 283 283 285 286 286 287 288 290 292 291 289 288 288 292 295 296 295 295 294 294 294 292 292 291 291
283 283 282 281 282 282 282 281 281 282 283 284 284 285 286 287 286 286 287 287 289 291 289 288 285 286 288 291 295 295 294 294 294 293 292 292 292 292
282 283 281 280 282 284 281 280 280 280 284 285 287 288 288 288 288 286 283 283 284 288 291 288 283 283 285 288 292 294 294 294 293 293 293 292 292 291
282 282 283 282 283 283 281 280 279 279 280 281 283 285 287 287 287 286 285 282 283 285 288 287 283 283 280 282 288 292 292 292 292 292 293 292 292 287
281 280 281 283 283 284 284 280 280 282 282 282 283 285 286 287 287 287 287 285 283 285 290 289 284 283 282 282 283 287 290 287 288 289 292 293 292 289
280 281 281 283 284 284 282 282 283 282 284 284 284 285 284 285 286 287 287 287 288 290 291 291 286 286 282 278 283 286 287 286 286 286 287 290 291 290
281 281 283 284 283 280 280 282 282 283 283 283 282 283 285 286 287 287 288 289 290 293 292 292 290 289 288 283 281 282 281 282 284 284 285 285 285 285
280 281 279 279 278 277 278 281 280 281 282 281 281 282 283 283 286 287 286 286 285 284 289 290 290 290 287 286 284 281 282 282 281 283 284 284 285 285
279 275 275 275 275 276 277 278 280 281 280 280 281 281 281 282 284 285 285 284 284 284 284 288 290 291 289 286 283 283 281 281 282 283 283 282 283 284
277 271 272 272 273 275 277 277 277 278 279 279 280 281 281 281 282 284 285 285 284 284 284 284 285 284 284 286 288 283 283 283 282 283 283 280 281 283
276 275 274 274 276 277 277 276 275 277 278 278 279 280 281 281 281 282 283 284 283 283 282 283 282 282 281 280 283 287 285 284 284 283 283 280 281 282
276 276 276 276 275 275 275 276 277 276 277 278 278 278 279 280 279 280 281 282 282 282 282 282 282 281 280 279 279 281 285 282 281 281 279 279 280 283
275 275 275 275 275 275 275 276 276 274 275 273 276 277 276 278 277 279 279 276 278 281 280 281 283 284 284 283 277 276 279 285 285 282 281 277 276 275
274 274 274 275 275 275 275 275 274 274 273 274 274 274 273 275 273 274 274 273 275 276 276 278 280 281 281 281 278 275 277 277 281 284 284 283 277 271
273 273 273 273 274 274 275 274 275 273 273 274 273 274 271 273 273 274 273 273 272 272 272 273 275 276 277 278 277 277 275 276 277 274 277 282 284 284
Wind_Speed
5 6 5 5 6 7 8 8 6 8 10 5 5 5 5 4 6 5 5 7 10 9 9 6 3 3 4 4 7 9 10 10 11 9 8 8 6 6
4 5 4 5 4 6 4 6 6 8 8 8 8 6 6 6 6 6 6 7 7 7 10 10 8 6 5 2 3 8 9 9 8 9 8 7 8 8
5 5 5 5 5 5 6 7 8 8 10 8 8 10 13 10 7 6 5 5 5 9 10 11 11 9 8 6 3 1 6 9 9 10 9 9 9 8
6 6 6 7 6 5 5 7 7 9 8 12 9 8 10 10 12 12 8 6 5 7 10 13 11 9 9 8 7 4 1 3 4 5 6 7 7 8
6 6 8 9 9 5 7 8 7 7 8 9 10 8 10 10 9 9 7 6 4 9 10 12 9 12 11 11 11 9 7 5 2 2 4 5 6 7
7 7 8 7 8 11 11 9 9 6 8 8 9 9 8 9 10 8 8 6 8 4 6 7 8 11 12 12 13 13 10 8 5 2 1 2 4 5
6 8 10 13 19 16 9 8 8 8 9 9 9 9 8 8 8 7 11 8 9 5 4 4 4 4 3 8 10 14 12 10 8 5 2 1 3 4
10 10 10 15 11 15 17 18 12 10 12 10 11 11 13 10 8 9 10 9 10 4 4 5 4 4 4 4 12 12 12 11 9 7 4 2 3 4
8 10 10 8 15 12 16 20 15 20 16 13 15 15 15 14 11 11 11 11 13 8 7 8 4 4 4 5 12 15 14 12 11 8 6 4 3 3
7 9 7 12 11 13 13 14 15 16 16 12 15 16 15 15 15 13 15 15 13 7 5 11 4 5 3 4 15 17 15 12 11 9 6 4 2 2
9 8 8 12 18 21 15 15 17 18 17 24 25 26 25 25 26 14 14 13 12 13 8 7 4 4 3 4 6 15 14 12 10 8 7 4 3 4
10 9 14 13 20 21 16 14 16 18 15 16 16 18 20 19 27 20 16 16 12 12 8 12 5 5 1 2 4 6 6 8 11 8 8 6 7 3
9 9 8 17 21 24 24 14 15 18 17 14 14 14 14 17 14 14 17 17 15 15 9 12 5 4 3 4 2 4 6 3 3 3 5 11 9 5
11 9 10 20 24 25 21 23 24 18 9 9 11 13 13 15 14 14 17 16 17 20 11 16 5 6 5 2 5 3 3 3 4 4 4 5 8 5
9 13 22 23 23 17 22 24 19 9 9 9 12 12 14 18 18 14 14 19 19 13 9 9 3 8 8 4 5 4 4 3 3 4 4 5 4 3
9 10 9 13 13 11 11 10 6 9 8 9 10 11 13 18 6 5 6 6 5 4 6 7 5 8 4 6 5 4 4 4 3 3 4 3 3 3
7 3 4 6 7 8 7 7 5 7 8 9 10 11 11 15 8 3 3 5 4 6 5 7 10 2 4 6 4 4 4 3 4 4 4 3 2 4
6 3 6 7 6 7 6 5 4 7 8 9 9 9 9 10 13 7 6 5 5 6 5 6 4 3 3 4 3 4 3 4 3 5 3 3 1 2
7 7 7 6 4 6 5 6 6 4 7 7 9 8 9 10 11 10 8 7 8 7 6 4 4 4 4 2 3 4 4 3 3 2 3 2 3 3
8 8 7 6 7 7 7 8 6 5 6 6 7 7 7 8 7 8 8 8 7 4 4 3 3 3 3 3 3 1 3 4 3 3 3 1 1 3
8 8 8 8 7 7 8 8 5 6 5 4 6 6 6 5 6 6 6 6 5 4 4 4 3 6 4 3 4 3 3 2 4 4 3 3 2 0
9 9 9 8 8 8 8 6 6 6 3 3 4 5 5 4 3 3 3 2 3 2 2 2 3 2 2 2 2 3 2 3 2 3 7 9 5 3
10 10 10 9 9 9 8 7 8 5 7 5 3 4 2 3 3 2 3 3 2 2 1 2 2 2 1 2 3 2 2 2 0 2 3 7 10 11
Wind_Direction
15 9 358 354 351 346 348 343 312 307 298 288 272 253 259 244 254 252 248 265 243 235 238 212 218 284 309 1 5 355 6 350 335 324 308 290 284 287
356 348 343 340 336 330 329 327 333 335 318 336 319 292 270 266 242 238 261 277 277 256 227 223 214 229 245 231 7 353 350 351 349 353 343 318 297 282
320 340 321 320 335 323 329 325 324 313 297 299 296 320 308 292 275 254 248 255 263 248 226 228 218 216 227 209 179 325 353 349 359 3 0 358 354 325
316 318 312 323 307 298 310 315 310 308 305 319 314 307 300 306 295 283 263 229 236 250 240 229 228 211 223 202 198 178 76 324 342 3 22 25 5 359
308 310 313 310 308 294 297 298 299 299 311 304 308 314 309 305 295 294 273 265 244 236 252 242 197 227 220 199 196 188 200 222 176 95 49 38 38 35
304 307 308 305 305 299 297 294 291 302 304 300 301 303 302 304 301 278 279 264 269 249 220 206 191 225 240 209 191 190 195 195 204 170 77 26 6 13
323 314 311 307 309 298 309 310 309 306 297 291 291 296 291 290 285 294 290 273 265 256 253 229 213 208 211 208 190 192 189 192 194 191 181 352 337 328
311 308 305 303 306 327 318 307 300 301 294 288 290 281 281 276 277 277 275 275 276 215 214 250 189 205 195 177 192 193 192 195 202 205 217 244 298 304
297 308 306 326 316 305 308 303 297 297 283 273 274 277 279 275 275 281 279 273 262 253 223 232 191 224 192 198 197 187 189 196 205 211 218 223 237 293
286 293 302 301 297 304 306 303 297 291 285 283 280 271 265 270 267 263 266 274 280 255 197 238 184 218 199 207 199 186 187 196 200 207 205 213 193 17
284 279 280 296 292 300 303 298 293 288 289 283 281 280 271 265 264 267 261 260 258 250 207 233 203 183 190 188 178 187 190 198 206 200 195 215 168 104
287 272 274 283 286 295 299 297 294 288 292 291 288 283 277 266 254 247 249 245 246 252 205 208 178 156 176 238 181 187 189 210 204 200 206 200 166 137
284 286 283 289 293 300 308 300 285 288 286 278 277 280 278 274 259 243 234 233 237 238 202 200 173 161 132 149 189 188 170 186 159 201 210 167 178 171
283 282 284 293 299 308 311 300 297 297 289 285 287 282 284 283 260 240 227 231 234 236 189 201 175 161 140 148 151 138 153 155 147 173 167 174 179 174
276 275 284 291 299 304 297 300 306 301 299 303 313 308 298 298 268 232 231 234 227 218 180 176 166 179 169 145 152 146 130 198 182 158 161 165 174 172
279 273 266 274 281 281 290 297 303 321 307 314 311 315 320 323 306 220 213 163 149 135 166 191 245 167 154 138 125 139 161 164 160 173 149 159 167 190
281 264 280 288 291 293 291 289 295 327 327 321 322 324 335 335 332 354 112 137 149 146 155 182 213 157 70 136 114 141 153 158 166 144 123 150 204 203
306 278 282 280 277 285 296 321 311 327 329 323 323 329 333 342 341 352 23 72 89 117 106 97 100 107 82 24 46 139 139 155 165 161 125 138 224 231
299 291 283 273 292 306 319 315 308 306 315 323 334 334 348 348 352 360 14 29 52 56 62 82 98 94 94 95 325 39 134 156 131 112 147 155 177 236
306 306 315 317 308 308 309 303 307 313 312 318 324 328 337 343 3 2 9 18 32 50 63 69 80 82 106 151 146 285 5 115 127 156 157 113 276 310
311 310 310 307 303 302 299 292 295 293 293 302 309 318 326 335 347 3 4 14 18 26 47 49 75 76 60 55 50 2 332 21 156 151 152 137 180 221
311 306 304 300 300 297 296 302 293 283 277 300 320 328 328 325 337 338 355 356 357 13 4 356 28 87 108 130 166 184 267 320 339 225 181 168 167 209
321 315 309 303 298 296 297 300 301 330 301 282 275 283 296 320 326 329 351 6 14 359 312 320 16 42 154 172 175 177 189 221 226 320 298 230 230 244